Theta_e
292 292 292 293 293 296 298 303 304 304 304 307 305 307 307 306 307 307 307 307 306 307 307 308 308 309 309 308 308 309 310 310 312 311 311 312 312 312 312 316 314 313 317 320
292 291 291 291 293 294 300 302 303 303 304 307 308 306 306 306 307 307 307 308 308 308 308 310 309 309 308 308 308 308 308 308 310 310 310 310 310 311 310 311 312 312 317 318
291 291 292 291 293 293 298 300 305 303 302 304 306 306 306 307 306 306 306 307 308 308 309 310 309 309 308 307 306 306 306 307 307 311 310 310 310 311 311 310 314 313 313 312
290 292 292 291 293 294 297 299 301 303 303 303 305 305 305 304 305 305 306 308 307 308 310 308 308 308 308 307 307 306 306 306 306 306 307 307 307 308 308 308 309 310 311 308
290 290 291 293 291 294 296 298 299 300 301 302 303 305 305 305 305 305 308 307 307 306 308 308 307 307 308 308 307 306 306 307 307 308 306 306 307 306 307 307 307 306 306 307
290 289 289 293 293 292 296 296 297 297 299 301 303 304 304 304 304 304 304 304 305 308 307 305 306 306 306 308 308 308 307 308 309 309 307 307 307 308 307 307 307 307 308 308
292 291 290 289 293 293 296 297 297 297 299 299 301 301 301 303 304 304 303 303 305 303 305 305 305 305 305 306 307 306 308 308 309 310 308 310 310 308 308 308 307 307 307 307
289 289 292 292 290 291 294 295 296 296 298 297 297 298 299 299 301 302 302 302 303 304 302 306 306 307 307 308 308 307 307 308 310 310 308 307 307 307 307 307 307 307 307 308
291 289 290 291 292 291 292 293 294 295 297 298 297 298 297 299 300 301 300 300 301 304 303 306 306 307 306 306 308 308 307 308 311 309 310 308 307 307 307 307 306 307 309 310
290 288 289 290 290 290 292 292 293 294 296 296 296 298 299 298 300 301 301 301 301 302 303 306 306 307 306 307 306 308 309 309 311 310 309 309 307 307 307 306 306 309 309 309
290 288 290 290 289 289 291 292 293 293 295 295 296 296 297 297 298 300 300 300 302 304 304 306 306 307 306 307 306 307 307 309 310 310 310 309 307 306 306 306 308 307 308 308
289 290 288 290 289 290 290 292 293 293 294 293 295 296 296 297 297 297 298 300 299 301 301 302 307 307 306 308 308 306 307 306 307 308 309 306 306 306 306 307 307 306 305 305
290 291 290 289 290 290 290 293 293 294 294 293 293 293 294 295 295 296 297 297 298 299 300 300 303 307 306 308 307 306 307 306 306 305 305 305 304 305 304 305 306 305 306 307
291 290 290 289 288 290 289 292 293 293 293 294 294 294 294 295 296 296 296 296 296 297 299 300 301 303 305 306 306 307 307 306 307 307 306 305 304 305 305 305 305 305 306 306
290 287 289 289 289 288 289 292 292 292 293 295 294 294 295 295 296 297 297 298 298 298 299 300 301 303 305 306 306 306 305 306 307 308 305 305 305 305 305 305 305 303 303 306
287 289 288 289 289 289 291 292 292 292 293 293 295 295 296 297 298 299 299 299 299 299 300 300 301 302 306 305 305 305 304 304 303 304 303 303 303 303 303 302 303 302 301 302
291 290 290 290 287 291 292 294 294 294 293 293 294 296 298 298 298 298 297 300 300 300 300 301 302 303 304 306 306 304 303 303 302 302 302 302 301 302 303 302 301 302 303 304
291 290 290 288 288 291 292 292 292 292 293 293 295 296 296 299 299 299 298 297 298 298 301 303 305 304 304 304 303 302 302 302 302 302 302 301 302 302 302 302 303 304 304 303
291 290 287 289 292 293 292 293 292 292 293 295 295 296 297 299 300 299 298 299 305 302 304 304 303 304 304 304 303 303 303 303 303 303 302 302 302 302 302 302 302 303 305 305
289 289 291 294 294 293 293 292 292 292 292 294 295 296 299 298 300 301 303 301 302 302 303 302 304 304 302 302 302 303 304 305 305 304 303 303 302 302 302 302 304 303 305 305
291 293 294 294 293 293 294 294 295 295 295 295 295 295 298 299 302 303 301 301 302 302 304 303 304 304 304 304 305 304 305 305 305 304 303 304 304 305 305 305 305 305 304 305
294 294 293 293 293 294 295 296 297 297 297 299 299 300 298 300 301 302 300 300 301 301 304 304 303 304 304 305 302 301 301 303 305 305 306 306 306 306 305 304 304 304 304 304
293 294 293 295 295 296 296 299 300 301 301 299 299 301 300 300 301 301 300 299 301 301 302 303 303 304 304 302 300 300 301 301 301 302 303 304 305 305 304 304 302 301 301 301
295 294 296 298 299 299 301 301 301 299 299 298 299 300 301 300 301 301 299 301 301 302 302 302 306 303 301 301 300 299 300 300 300 300 301 302 304 303 303 303 302 301 300 300
295 296 300 299 299 299 297 297 299 298 298 298 299 299 300 299 299 299 300 301 302 302 302 304 302 300 298 299 298 298 298 298 298 299 299 301 302 302 302 302 302 301 300 300
295 297 298 299 299 300 298 299 299 299 299 299 300 301 301 301 300 301 300 301 301 303 305 303 301 299 298 298 297 297 297 297 298 298 298 298 299 300 301 301 300 298 297 298
296 296 296 296 297 298 299 298 298 298 299 301 301 300 300 302 302 302 302 302 304 303 302 301 300 298 297 296 295 295 297 297 297 297 297 298 298 297 297 297 296 296 296 296
Wind_Speed
11 12 12 11 11 11 9 6 5 5 12 11 11 13 23 14 25 20 17 19 20 21 20 21 21 24 21 15 7 14 17 15 16 22 21 20 18 19 17 11 15 14 14 14
7 7 9 9 7 10 9 6 11 8 13 7 12 19 20 25 23 24 18 19 19 20 21 20 20 22 24 23 21 22 14 10 14 20 19 20 14 20 19 20 17 18 13 14
8 7 6 7 8 10 13 3 3 8 15 18 15 18 20 21 26 21 24 24 26 22 19 19 6 17 14 12 12 12 9 15 20 14 18 5 9 18 20 14 11 14 15 21
9 8 6 7 10 9 9 7 6 5 3 10 17 17 18 23 21 25 23 10 24 22 11 18 20 22 22 23 24 18 9 16 19 21 23 24 19 18 18 19 19 17 18 21
9 11 10 7 9 9 9 5 6 6 11 16 16 15 13 22 24 23 10 21 18 15 7 11 14 15 16 12 11 13 17 19 18 17 21 22 20 20 19 21 24 25 25 29
10 9 10 10 9 12 8 11 13 6 11 17 13 12 13 16 16 6 10 8 11 12 19 21 21 26 25 20 15 14 15 13 14 20 17 21 17 20 23 24 26 25 23 27
10 9 9 11 14 15 13 11 11 10 13 15 16 21 20 16 15 14 18 13 15 13 16 12 19 24 26 28 22 21 20 19 14 12 14 14 13 17 19 21 17 17 19 19
15 15 13 11 11 20 16 15 13 8 9 18 20 24 19 28 27 20 16 20 20 16 5 3 7 11 15 24 25 24 20 18 13 7 14 17 21 21 15 13 17 17 16 15
17 16 17 17 16 15 16 20 18 15 8 16 23 21 24 15 15 16 26 25 20 9 2 3 6 7 11 5 7 23 21 19 13 14 9 14 13 6 7 4 12 13 7 5
19 17 17 17 18 19 18 19 21 18 10 29 25 19 13 16 15 11 20 14 9 11 3 6 9 13 8 9 10 5 11 11 16 15 13 11 16 6 4 6 7 5 9 11
21 19 19 20 19 19 19 20 20 22 18 27 25 24 20 19 19 12 9 9 8 3 7 5 9 9 10 13 13 9 8 7 8 12 7 7 8 4 11 10 4 5 10 15
24 20 19 19 18 18 19 22 19 20 22 25 20 21 21 21 22 23 13 8 14 4 3 5 6 5 3 7 4 13 12 9 6 0 3 5 11 12 6 6 12 13 14 15
26 23 19 18 18 18 19 20 18 18 19 29 32 32 31 29 31 24 24 25 19 13 9 4 5 6 3 4 11 11 9 9 9 10 11 14 19 17 21 17 17 19 15 10
28 24 22 18 18 18 18 20 19 20 13 9 21 22 24 22 24 26 29 37 30 26 15 10 5 7 10 6 7 8 5 4 9 12 14 19 20 22 18 21 20 16 13 16
30 26 23 19 17 16 17 20 24 22 20 8 15 21 22 22 25 24 25 28 28 25 18 7 7 12 10 10 10 9 12 15 12 12 19 17 16 15 17 19 19 17 19 16
26 24 20 18 15 12 13 8 18 24 21 7 5 11 13 16 15 20 21 25 28 24 10 9 12 20 9 6 10 12 19 19 22 20 21 22 20 21 22 22 21 20 19 20
24 21 18 16 14 14 12 5 6 7 18 5 5 8 4 11 15 17 18 20 16 16 9 8 15 18 8 6 13 21 24 25 25 24 22 25 24 21 19 16 15 16 16 15
23 19 16 13 14 17 21 18 13 6 17 9 4 6 14 8 6 5 9 8 14 12 6 8 9 12 3 5 14 20 20 21 21 20 23 26 24 21 17 14 14 15 17 16
20 16 12 10 13 14 25 18 17 13 5 5 5 7 6 2 5 5 5 4 3 5 3 3 3 4 7 14 17 20 22 21 21 19 19 18 16 19 19 19 17 15 12 10
20 16 7 7 6 6 8 7 5 7 8 9 6 10 10 7 5 1 2 2 1 1 4 3 3 9 25 26 25 18 22 18 18 18 17 18 20 20 22 23 20 19 17 12
14 8 5 3 9 8 5 5 6 9 5 8 12 25 12 8 4 1 2 0 1 3 1 3 4 5 6 2 7 14 15 13 10 8 10 12 15 17 17 16 14 15 15 13
8 6 6 8 4 4 4 4 5 6 5 6 6 10 16 6 5 2 1 1 0 4 4 3 3 4 4 3 8 14 9 10 8 8 7 6 6 7 6 5 5 5 8 11
7 2 2 6 6 7 5 6 4 4 4 3 3 3 4 4 5 1 2 3 4 3 2 3 4 6 5 5 6 6 8 8 10 9 6 5 5 5 5 6 4 1 2 5
3 4 5 4 5 5 3 6 6 5 4 2 4 4 0 0 3 1 3 4 3 3 3 2 6 10 7 6 5 5 7 7 8 9 7 3 1 3 5 5 6 7 11 13
4 5 4 4 4 4 4 4 4 3 1 4 2 3 2 2 3 3 3 2 4 5 3 4 6 5 7 7 6 7 7 8 8 7 6 2 2 4 6 10 8 4 6 10
4 5 4 5 6 1 2 2 2 1 4 5 5 4 3 5 3 5 6 3 4 1 4 8 5 4 5 7 9 8 7 6 5 4 4 4 2 1 2 5 8 8 8 8
3 4 5 8 9 7 3 2 4 2 3 3 3 3 5 3 3 4 3 3 5 7 8 5 6 6 8 8 9 9 10 6 5 3 2 1 1 3 4 6 8 8 8 8
Wind_Direction
258 258 258 259 255 240 233 229 237 239 201 200 224 237 245 248 269 250 251 264 272 270 274 273 273 271 272 294 287 284 288 294 282 266 267 262 267 272 250 237 252 247 254 257
255 262 259 250 239 209 201 225 238 238 202 239 231 250 257 250 254 262 263 258 256 259 264 268 271 269 273 271 273 271 272 264 277 265 252 261 239 252 252 263 272 263 262 263
261 260 259 245 222 209 207 219 251 214 216 239 264 262 261 263 254 258 259 262 263 266 270 274 255 273 267 266 264 322 332 266 261 266 278 305 284 279 281 261 247 262 261 280
235 237 244 233 211 207 200 215 239 241 223 237 236 249 271 268 264 261 246 265 249 249 257 256 258 261 263 259 257 261 261 256 260 270 278 284 280 257 266 277 271 268 274 270
235 241 232 222 212 210 213 237 242 239 268 275 269 243 245 255 267 269 264 243 248 254 258 245 261 270 279 262 269 248 234 244 262 259 265 274 277 275 265 264 265 270 273 273
247 249 232 220 213 205 233 243 251 263 280 254 242 250 247 256 248 259 269 293 309 293 256 248 261 278 279 275 271 267 250 247 251 254 248 252 256 248 253 259 263 265 266 268
244 249 248 230 223 220 240 246 264 254 264 265 263 261 265 278 277 272 275 271 284 295 294 256 251 257 262 265 254 251 255 248 245 265 261 250 257 251 248 257 276 271 269 280
248 243 248 255 240 234 243 259 251 248 259 266 268 269 277 273 262 266 272 286 279 280 272 236 254 246 248 246 243 239 234 246 253 252 245 258 269 274 232 243 258 269 269 294
252 255 241 241 244 244 248 250 255 257 266 258 265 278 273 276 277 284 276 262 268 246 261 222 237 252 266 259 231 224 227 231 236 236 264 261 279 324 60 262 271 269 281 288
245 245 234 238 241 240 243 248 251 251 250 263 271 272 281 302 281 284 292 313 279 236 246 246 259 249 228 233 247 190 217 227 230 234 244 262 256 163 168 253 293 3 325 303
244 243 237 240 244 243 243 250 247 245 270 272 271 277 281 281 283 285 312 321 226 244 233 225 249 243 235 242 240 209 218 216 227 240 240 259 312 245 245 283 297 310 321 317
238 238 236 238 242 246 246 251 248 252 248 261 277 274 268 271 271 280 273 267 303 302 294 324 305 253 277 255 255 221 236 241 265 63 313 358 310 313 303 280 308 308 301 301
233 235 238 241 242 248 251 251 253 258 256 269 262 263 263 259 258 256 265 268 269 268 278 316 325 292 312 231 238 238 231 248 251 266 277 296 294 288 267 272 282 286 275 262
228 232 237 244 246 250 256 254 254 246 265 270 272 266 262 259 256 247 247 256 259 264 272 283 262 267 269 282 296 293 285 230 248 267 266 272 276 275 265 277 273 267 260 253
227 231 232 241 246 251 261 261 249 242 234 284 294 291 276 263 253 248 252 248 245 244 250 250 263 274 263 261 269 267 262 256 257 255 258 265 263 268 260 261 269 273 277 253
218 219 227 232 237 244 258 275 271 233 230 254 272 270 280 260 246 236 266 238 233 229 229 238 245 247 266 266 273 272 259 265 271 274 276 283 288 279 277 276 272 267 268 270
204 211 219 222 223 227 222 258 317 214 208 245 261 264 216 233 240 244 253 243 224 209 220 229 248 268 232 270 268 272 280 280 274 268 270 271 270 271 277 267 267 267 258 260
197 203 207 214 220 242 246 249 249 216 199 238 256 268 274 199 211 227 228 208 213 206 225 223 227 251 269 266 268 279 280 280 276 260 257 258 265 261 260 265 269 270 265 260
177 177 190 208 229 235 250 241 235 198 264 259 234 257 304 254 261 229 218 234 195 159 241 252 274 232 228 250 281 292 301 298 289 277 268 258 259 251 249 261 273 263 261 257
164 167 180 206 206 177 140 147 190 215 222 238 252 265 259 272 255 229 211 229 309 250 226 161 231 253 262 270 281 305 313 303 291 264 254 260 264 263 265 269 270 255 248 260
165 184 192 157 165 162 191 206 214 196 224 220 238 232 249 277 254 311 55 13 345 267 153 217 224 259 271 305 319 326 320 323 313 276 260 261 265 269 271 269 264 253 250 252
175 164 131 146 192 197 233 218 203 222 237 201 235 243 210 210 226 259 163 248 19 253 354 267 265 295 51 352 338 333 358 343 351 353 346 331 306 280 256 253 255 230 210 211
143 164 185 203 180 225 228 212 194 221 193 170 178 178 186 182 222 259 206 231 235 295 243 239 267 9 18 354 329 354 336 352 0 356 353 4 28 70 121 134 163 200 176 168
211 203 233 224 187 225 217 323 5 18 21 182 203 149 194 32 194 129 242 232 252 255 246 270 25 18 352 354 350 343 341 349 350 342 333 305 206 166 163 162 124 113 122 132
250 230 261 218 322 316 317 312 308 4 148 151 145 151 213 182 220 223 269 247 241 229 261 10 32 6 352 345 346 342 335 344 351 348 345 338 206 244 213 178 179 198 194 185
246 249 274 290 289 225 233 301 315 147 207 241 230 186 201 213 214 195 220 243 251 320 13 1 357 358 345 335 330 329 323 324 338 350 19 35 47 181 192 171 169 171 167 173
246 260 274 276 291 297 321 296 288 297 260 251 271 232 231 306 238 223 224 248 338 348 332 340 338 335 327 323 326 325 319 317 303 295 275 319 75 108 125 162 171 164 163 167